Погода в Карнале

Индия     29°41′25″N   76°58′50″E
темп.,
°C
ветер,
м/с
пор.,
м/с
влажн.,
%
обл.,
%
осадки,
мм/ч
давл.,
гПа
погр.,
м
5 марта, пт
пт523:30+19ссз33210 0.0 101225
02:30+18ссз23240 0.0 101123
05:30+16ссз33250 0.0 101126
08:30+20сз47220 0.0 1012248
11:30+31сз79100 0.0 10122649
14:30+33сз81180 0.0 10093023
17:30+30ссз61090 0.0 10071787
20:30+21сз45180 0.0 101081
6 марта, сб
сб623:30+19зсз45210 0.0 101173
02:30+16зсз48230 0.0 1010127
05:30+15сз45260 0.0 101083
08:30+20зсз46220 0.0 1012215
11:30+31сз5790 0.0 10111537
14:30+35зсз71160 0.0 10083169
17:30+32сз4780 0.0 1007464
20:30+23с23130 0.0 100925
7 марта, вс
вс723:30+21в22150 0.0 100923
02:30+20в23152 0.0 100923
05:30+20ююв221834 0.0 100924
08:30+23юв231558 0.0 1010194
11:30+32юв671059 0.1 1010969
14:30+36ююз381189 0.0 10074310
17:30+33всв231392 0.0 1005228
20:30+26в3824100 0.1 1008169
8 марта, пн
пн823:30+19вюв485878 0.6 1009133
02:30+17в59661 0.3 1009135
05:30+16в49751 0.4 1009129
08:30+20в610556 0.0 1012228
11:30+32вюв682014 0.0 1012917
14:30+37с13100 0.0 10094328
17:30+33с111231 0.0 100825
20:30+24всв221722 0.0 101124
9 марта, вт
вт923:30+21св342211 0.0 101141
02:30+19св34320 0.0 101037
05:30+19в23349 0.0 101024
08:30+25в34258 0.0 1012175
11:30+35вюв33129 0.0 10121262
14:30+37ююв34913 0.0 10084554
17:30+35юв231157 0.0 1006183
20:30+26юв221817 0.0 100824